sat.trackr.live / text

‹ back to catalog

CFOSAT

NORAD 43662 · 2018-083A

PAYLOAD ACTIVE UNKNOWN

§ Identity

Operator
Country
PRC
Launch date
2018-10-29
Launch site
JSC
Launch vehicle
Mass (kg)
RCS (m²)

External: N2YO · Heavens-Above · Gunter

§ Orbital elements

Epoch: 2026-05-25T04:41:30.665184Z

Period
94.95 min
Inclination
97.3609°
Eccentricity
0.0001204
Mean motion
15.16536984 rev/d
Perigee alt
515.5 km
Apogee alt
517.1 km
Semi-major
6,894.5 km
B*
1.5086e-4
RAAN
150.4051°
Arg perigee
65.6757°
Mean anomaly
294.4602°
Rev number
41,895

§ Raw data

CFOSAT1 43662U 18083A   26145.19549381  .00002877  00000+0  15086-3 0  99952 43662  97.3609 150.4051 0001204  65.6757 294.4602 15.16536984418958

JSON: /api/v1/satellites/43662 · /tle

For live sub-satellite position, see the globe view (requires WebGL).

§ Visibility from observer

Set your observer location to see the next 7 days of passes ≥ 10°. The values pass through the URL so the page stays shareable.

No JS? Fill the form by hand. The geolocation button needs JavaScript.

§ Radio — SatNOGS DB

ModeDescriptionDownlinkUplink
FM Mode S Down 2.262 GHz
FM Mode X dumps (Sweden, China) 8.304 GHz

2 transmitters · refreshed weekly from db.satnogs.org